Time,TemperatureF,DewpointF,PressureIn,WindDirection,WindDirectionDegrees,WindSpeedMPH,WindSpeedGustMPH,Humidity,HourlyPrecipIn,Conditions,Clouds,dailyrainin,SolarRadiationWatts/m^2,SoftwareType,DateUTC
2013-03-26 00:00:00,30.4,24.1,29.59,West,274,0.0,0.0,77,0.00,,,0.43,0.00,VWS V14.01,2013-03-26 04:00:00,
2013-03-26 00:01:00,30.3,24.0,29.59,SSW,209,0.0,0.0,77,0.00,,,0.00,0.00,VWS V14.01,2013-03-26 04:01:00,
2013-03-26 00:02:00,30.4,24.1,29.59,SW,217,0.0,0.0,77,0.00,,,0.43,0.00,VWS V14.01,2013-03-26 04:02:00,
2013-03-26 00:03:00,30.4,24.1,29.59,West,267,0.0,0.0,77,0.00,,,0.43,0.00,VWS V14.01,2013-03-26 04:03:00,
2013-03-26 00:04:00,30.4,24.1,29.59,South,182,0.0,0.0,77,0.00,,,0.43,0.00,VWS V14.01,2013-03-26 04:04:00,
2013-03-26 00:05:00,30.4,24.1,29.59,West,274,0.0,0.0,77,0.00,,,0.00,0.00,VWS V14.01,2013-03-26 04:05:00,
2013-03-26 00:06:00,30.4,24.1,29.59,West,271,0.0,0.0,77,0.00,,,0.00,0.00,VWS V14.01,2013-03-26 04:06:00,
2013-03-26 00:07:00,30.4,24.1,29.59,SW,230,0.0,0.0,77,0.00,,,0.00,0.00,VWS V14.01,2013-03-26 04:07:00,
2013-03-26 00:08:00,30.3,24.0,29.59,SSW,198,0.0,0.0,77,0.00,,,0.00,0.00,VWS V14.01,2013-03-26 04:08:00,
2013-03-26 00:09:00,30.3,24.0,29.59,South,179,0.0,0.0,77,0.00,,,0.00,0.00,VWS V14.01,2013-03-26 04:09:00,
2013-03-26 00:10:00,30.4,24.1,29.59,West,274,0.0,0.0,77,0.00,,,0.00,0.00,VWS V14.01,2013-03-26 04:10:00,
2013-03-26 00:11:00,30.3,24.0,29.59,South,184,0.0,0.0,77,0.00,,,0.00,0.00,VWS V14.01,2013-03-26 04:11:00,
2013-03-26 00:12:00,30.3,24.0,29.59,SSE,151,0.0,0.0,77,0.00,,,0.00,0.00,VWS V14.01,2013-03-26 04:12:00,
2013-03-26 00:13:00,30.3,24.0,29.59,West,278,0.0,0.0,77,0.00,,,0.00,0.00,VWS V14.01,2013-03-26 04:13:00,
2013-03-26 00:14:00,30.3,24.0,29.59,WNW,287,0.0,0.0,77,0.00,,,0.00,0.00,VWS V14.01,2013-03-26 04:14:00,
2013-03-26 00:15:00,30.3,24.0,29.59,West,270,0.0,0.0,77,0.00,,,0.00,0.00,VWS V14.01,2013-03-26 04:15:00,
2013-03-26 00:16:00,30.3,24.0,29.59,South,184,0.0,0.0,77,0.00,,,0.00,0.00,VWS V14.01,2013-03-26 04:16:00,
2013-03-26 00:17:00,30.3,24.3,29.59,WNW,298,0.0,0.0,78,0.00,,,0.00,0.00,VWS V14.01,2013-03-26 04:17:00,
2013-03-26 00:18:00,30.3,24.3,29.59,South,179,0.0,0.0,78,0.00,,,0.00,0.00,VWS V14.01,2013-03-26 04:18:00,
2013-03-26 00:19:00,30.3,24.3,29.59,SW,220,0.0,0.0,78,0.00,,,0.00,0.00,VWS V14.01,2013-03-26 04:19:00,
2013-03-26 00:20:00,30.3,24.3,29.59,WSW,241,0.0,0.0,78,0.00,,,0.00,0.00,VWS V14.01,2013-03-26 04:20:00,
2013-03-26 00:21:00,30.3,24.0,29.59,NNW,343,0.0,0.0,77,0.00,,,0.00,0.00,VWS V14.01,2013-03-26 04:21:00,
2013-03-26 00:22:00,30.3,24.3,29.59,West,264,0.0,0.0,78,0.00,,,0.00,0.00,VWS V14.01,2013-03-26 04:22:00,
2013-03-26 00:23:00,30.3,24.3,29.59,South,186,0.0,0.0,78,0.00,,,0.00,0.00,VWS V14.01,2013-03-26 04:23:00,
2013-03-26 00:24:00,30.3,24.3,29.59,WNW,294,0.0,0.0,78,0.00,,,0.00,0.00,VWS V14.01,2013-03-26 04:24:00,
2013-03-26 00:25:00,30.3,24.3,29.59,SSW,213,0.0,0.0,78,0.00,,,0.00,0.00,VWS V14.01,2013-03-26 04:25:00,
2013-03-26 00:26:00,30.3,24.3,29.59,SW,216,0.0,0.0,78,0.00,,,0.00,0.00,VWS V14.01,2013-03-26 04:26:00,
2013-03-26 00:27:00,30.3,24.3,29.59,SSE,152,0.0,0.0,78,0.00,,,0.00,0.00,VWS V14.01,2013-03-26 04:27:00,
2013-03-26 00:28:00,30.3,24.3,29.59,South,184,0.0,0.0,78,0.00,,,0.00,0.00,VWS V14.01,2013-03-26 04:28:00,
2013-03-26 00:29:00,30.3,24.3,29.59,SSW,213,0.0,0.0,78,0.00,,,0.00,0.00,VWS V14.01,2013-03-26 04:29:00,
2013-03-26 00:30:00,30.3,24.3,29.59,West,275,0.0,0.0,78,0.00,,,0.00,0.00,VWS V14.01,2013-03-26 04:30:00,
2013-03-26 00:31:00,30.3,24.3,29.59,South,186,0.0,0.0,78,0.00,,,0.00,0.00,VWS V14.01,2013-03-26 04:31:00,
2013-03-26 00:32:00,30.3,24.0,29.59,SSE,164,0.0,0.0,77,0.00,,,0.00,0.00,VWS V14.01,2013-03-26 04:32:00,
2013-03-26 00:33:00,30.3,24.0,29.59,SSW,193,0.0,0.0,77,0.00,,,0.00,0.00,VWS V14.01,2013-03-26 04:33:00,
2013-03-26 00:34:00,30.3,24.0,29.59,SW,233,0.0,0.0,77,0.00,,,0.00,0.00,VWS V14.01,2013-03-26 04:34:00,
2013-03-26 00:35:00,30.3,24.0,29.59,West,277,0.0,0.0,77,0.00,,,0.00,0.00,VWS V14.01,2013-03-26 04:35:00,
2013-03-26 00:36:00,30.4,24.1,29.59,WSW,251,0.0,0.0,77,0.00,,,0.00,0.00,VWS V14.01,2013-03-26 04:36:00,
2013-03-26 00:37:00,30.3,24.0,29.59,SSE,164,0.0,0.0,77,0.00,,,0.00,0.00,VWS V14.01,2013-03-26 04:37:00,
2013-03-26 00:38:00,30.4,24.1,29.59,West,277,0.0,0.0,77,0.00,,,0.00,0.00,VWS V14.01,2013-03-26 04:38:00,
2013-03-26 00:39:00,30.4,24.1,29.59,SSE,157,0.0,0.0,77,0.00,,,0.00,0.00,VWS V14.01,2013-03-26 04:39:00,
2013-03-26 00:40:00,30.4,24.1,29.59,SE,145,0.0,0.0,77,0.00,,,0.00,0.00,VWS V14.01,2013-03-26 04:40:00,
2013-03-26 00:41:00,30.4,24.1,29.59,South,175,0.0,0.0,77,0.00,,,0.00,0.00,VWS V14.01,2013-03-26 04:41:00,
2013-03-26 00:42:00,30.4,24.1,29.59,SW,222,0.0,0.0,77,0.00,,,0.00,0.00,VWS V14.01,2013-03-26 04:42:00,
2013-03-26 00:43:00,30.4,24.1,29.59,West,280,0.0,0.0,77,0.00,,,0.00,0.00,VWS V14.01,2013-03-26 04:43:00,
2013-03-26 00:44:00,30.4,24.4,29.59,SW,234,0.0,0.0,78,0.00,,,0.00,0.00,VWS V14.01,2013-03-26 04:44:00,
2013-03-26 00:45:00,30.4,24.1,29.60,SSE,161,0.0,0.0,77,0.00,,,0.00,0.00,VWS V14.01,2013-03-26 04:45:00,
2013-03-26 00:46:00,30.4,24.1,29.60,South,186,0.0,0.0,77,0.00,,,0.00,0.00,VWS V14.01,2013-03-26 04:46:00,
2013-03-26 00:47:00,30.4,24.1,29.60,SSE,147,0.0,0.0,77,0.00,,,0.00,0.00,VWS V14.01,2013-03-26 04:47:00,
2013-03-26 00:48:00,30.4,24.1,29.59,West,280,0.0,0.0,77,0.00,,,0.00,0.00,VWS V14.01,2013-03-26 04:48:00,
2013-03-26 00:49:00,30.3,24.3,29.60,West,261,0.0,0.0,78,0.00,,,0.00,0.00,VWS V14.01,2013-03-26 04:49:00,
2013-03-26 00:50:00,30.3,24.3,29.60,SSW,198,0.0,0.0,78,0.00,,,0.00,0.00,VWS V14.01,2013-03-26 04:50:00,
2013-03-26 00:51:00,30.3,24.3,29.60,West,264,0.0,0.0,78,0.00,,,0.00,0.00,VWS V14.01,2013-03-26 04:51:00,
2013-03-26 00:52:00,30.3,24.3,29.60,West,275,0.0,0.0,78,0.00,,,0.00,0.00,VWS V14.01,2013-03-26 04:52:00,
2013-03-26 00:53:00,30.4,24.4,29.60,North,357,0.0,0.0,78,0.00,,,0.00,0.00,VWS V14.01,2013-03-26 04:53:00,
2013-03-26 00:54:00,30.3,24.3,29.60,South,188,0.0,0.0,78,0.00,,,0.00,0.00,VWS V14.01,2013-03-26 04:54:00,
2013-03-26 00:55:00,30.3,24.3,29.60,SSE,167,0.0,0.0,78,0.00,,,0.00,0.00,VWS V14.01,2013-03-26 04:55:00,
2013-03-26 00:56:00,30.3,24.3,29.60,West,265,0.0,0.0,78,0.00,,,0.00,0.00,VWS V14.01,2013-03-26 04:56:00,
2013-03-26 00:57:00,30.3,24.3,29.60,WSW,247,0.0,0.0,78,0.00,,,0.00,0.00,VWS V14.01,2013-03-26 04:57:00,
2013-03-26 00:58:00,30.3,24.3,29.60,NE,34,0.0,0.0,78,0.00,,,0.00,0.00,VWS V14.01,2013-03-26 04:58:00,
2013-03-26 00:59:00,30.3,24.3,29.60,South,188,0.0,0.0,78,0.00,,,0.00,0.00,VWS V14.01,2013-03-26 04:59:00,
2013-03-26 01:00:00,30.3,24.3,29.61,SSW,202,0.0,0.0,78,0.00,,,0.00,0.00,VWS V14.01,2013-03-26 05:00:00,
2013-03-26 01:01:00,30.3,24.3,29.61,WNW,285,0.0,0.0,78,0.00,,,0.00,0.00,VWS V14.01,2013-03-26 05:01:00,
2013-03-26 01:02:00,30.3,24.3,29.61,South,188,0.0,0.0,78,0.00,,,0.00,0.00,VWS V14.01,2013-03-26 05:02:00,
2013-03-26 01:03:00,30.3,24.3,29.61,WSW,254,0.0,0.0,78,0.00,,,0.00,0.00,VWS V14.01,2013-03-26 05:03:00,
2013-03-26 01:04:00,30.3,24.3,29.61,WSW,254,0.0,0.0,78,0.00,,,0.00,0.00,VWS V14.01,2013-03-26 05:04:00,
2013-03-26 01:05:00,30.3,24.3,29.61,SSW,202,0.0,0.0,78,0.00,,,0.00,0.00,VWS V14.01,2013-03-26 05:05:00,
2013-03-26 01:06:00,30.3,24.3,29.61,SW,234,0.0,0.0,78,0.00,,,0.00,0.00,VWS V14.01,2013-03-26 05:06:00,
2013-03-26 01:07:00,30.3,24.3,29.61,WNW,288,0.0,0.0,78,0.00,,,0.00,0.00,VWS V14.01,2013-03-26 05:07:00,
2013-03-26 01:08:00,30.3,24.3,29.61,WSW,258,0.0,0.0,78,0.00,,,0.00,0.00,VWS V14.01,2013-03-26 05:08:00,
2013-03-26 01:09:00,30.3,24.3,29.61,West,264,0.0,0.0,78,0.00,,,0.00,0.00,VWS V14.01,2013-03-26 05:09:00,
2013-03-26 01:10:00,30.3,24.3,29.61,East,99,0.0,0.0,78,0.00,,,0.00,0.00,VWS V14.01,2013-03-26 05:10:00,
2013-03-26 01:11:00,30.3,24.3,29.61,West,271,0.0,0.0,78,0.00,,,0.00,0.00,VWS V14.01,2013-03-26 05:11:00,
2013-03-26 01:12:00,30.3,24.3,29.61,South,188,0.0,0.0,78,0.00,,,0.00,0.00,VWS V14.01,2013-03-26 05:12:00,
2013-03-26 01:13:00,30.3,24.3,29.61,ENE,76,0.0,0.0,78,0.00,,,0.00,0.00,VWS V14.01,2013-03-26 05:13:00,
2013-03-26 01:14:00,30.4,24.4,29.61,WNW,284,0.0,0.0,78,0.00,,,0.00,0.00,VWS V14.01,2013-03-26 05:14:00,
2013-03-26 01:15:00,30.4,24.4,29.60,North,0,0.0,0.0,78,0.00,,,0.00,0.00,VWS V14.01,2013-03-26 05:15:00,
2013-03-26 01:16:00,30.3,24.3,29.61,West,271,0.0,0.0,78,0.00,,,0.00,0.00,VWS V14.01,2013-03-26 05:16:00,
2013-03-26 01:17:00,30.4,24.4,29.60,West,281,0.0,0.0,78,0.00,,,0.00,0.00,VWS V14.01,2013-03-26 05:17:00,
2013-03-26 01:18:00,30.4,24.4,29.60,WSW,243,0.0,0.0,78,0.00,,,0.00,0.00,VWS V14.01,2013-03-26 05:18:00,
2013-03-26 01:19:00,30.4,24.4,29.60,WSW,237,0.0,0.0,78,0.00,,,0.00,0.00,VWS V14.01,2013-03-26 05:19:00,
2013-03-26 01:20:00,30.4,24.4,29.60,WSW,237,0.0,0.0,78,0.00,,,0.00,0.00,VWS V14.01,2013-03-26 05:20:00,
2013-03-26 01:21:00,30.4,24.4,29.60,SE,145,0.0,0.0,78,0.00,,,0.00,0.00,VWS V14.01,2013-03-26 05:21:00,
2013-03-26 01:22:00,30.4,24.4,29.60,West,281,0.0,0.0,78,0.00,,,0.00,0.00,VWS V14.01,2013-03-26 05:22:00,
2013-03-26 01:23:00,30.4,24.1,29.60,West,278,0.0,0.0,77,0.00,,,0.00,0.00,VWS V14.01,2013-03-26 05:23:00,
2013-03-26 01:24:00,30.4,24.1,29.60,WSW,253,0.0,0.0,77,0.00,,,0.00,0.00,VWS V14.01,2013-03-26 05:24:00,
2013-03-26 01:25:00,30.4,24.1,29.60,West,264,0.0,0.0,77,0.00,,,0.00,0.00,VWS V14.01,2013-03-26 05:25:00,
2013-03-26 01:26:00,30.4,24.1,29.60,SSE,165,0.0,0.0,77,0.00,,,0.00,0.00,VWS V14.01,2013-03-26 05:26:00,
2013-03-26 01:27:00,30.4,24.4,29.60,SSE,160,0.0,0.0,78,0.00,,,0.00,0.00,VWS V14.01,2013-03-26 05:27:00,
2013-03-26 01:28:00,30.4,24.1,29.60,West,260,0.0,0.0,77,0.00,,,0.00,0.00,VWS V14.01,2013-03-26 05:28:00,
2013-03-26 01:29:00,30.4,24.1,29.60,West,260,0.0,0.0,77,0.00,,,0.00,0.00,VWS V14.01,2013-03-26 05:29:00,
2013-03-26 01:30:00,30.4,24.1,29.60,West,260,0.0,0.0,77,0.00,,,0.00,0.00,VWS V14.01,2013-03-26 05:30:00,
2013-03-26 01:31:00,30.4,24.1,29.60,West,275,0.0,0.0,77,0.00,,,0.00,0.00,VWS V14.01,2013-03-26 05:31:00,
2013-03-26 01:32:00,30.4,24.1,29.60,WNW,284,0.0,0.0,77,0.00,,,0.00,0.00,VWS V14.01,2013-03-26 05:32:00,
2013-03-26 01:33:00,30.4,24.1,29.60,West,260,0.0,0.0,77,0.00,,,0.00,0.00,VWS V14.01,2013-03-26 05:33:00,
2013-03-26 01:34:00,30.4,24.1,29.60,SSW,208,0.0,0.0,77,0.00,,,0.00,0.00,VWS V14.01,2013-03-26 05:34:00,
2013-03-26 01:35:00,30.4,24.1,29.60,WSW,244,0.0,0.0,77,0.00,,,0.00,0.00,VWS V14.01,2013-03-26 05:35:00,
2013-03-26 01:36:00,30.4,24.1,29.60,SE,144,0.0,0.0,77,0.00,,,0.00,0.00,VWS V14.01,2013-03-26 05:36:00,
2013-03-26 01:37:00,30.4,24.1,29.60,South,178,0.0,0.0,77,0.00,,,0.00,0.00,VWS V14.01,2013-03-26 05:37:00,
2013-03-26 01:38:00,30.4,24.1,29.60,South,186,0.0,0.0,77,0.00,,,0.00,0.00,VWS V14.01,2013-03-26 05:38:00,
2013-03-26 01:39:00,30.4,24.1,29.60,SE,140,0.0,0.0,77,0.00,,,0.00,0.00,VWS V14.01,2013-03-26 05:39:00,
2013-03-26 01:40:00,30.4,24.1,29.60,WNW,282,0.0,0.0,77,0.00,,,0.00,0.00,VWS V14.01,2013-03-26 05:40:00,
2013-03-26 01:41:00,30.4,24.1,29.60,SSE,158,0.0,0.0,77,0.00,,,0.00,0.00,VWS V14.01,2013-03-26 05:41:00,
2013-03-26 01:42:00,30.4,24.1,29.60,WNW,294,0.0,0.0,77,0.00,,,0.00,0.00,VWS V14.01,2013-03-26 05:42:00,
2013-03-26 01:43:00,30.4,24.1,29.60,East,90,0.0,0.0,77,0.00,,,0.00,0.00,VWS V14.01,2013-03-26 05:43:00,
2013-03-26 01:44:00,30.4,24.1,29.60,SE,140,0.0,0.0,77,0.00,,,0.00,0.00,VWS V14.01,2013-03-26 05:44:00,
2013-03-26 01:45:00,30.4,24.1,29.61,West,271,0.0,0.0,77,0.00,,,0.00,0.00,VWS V14.01,2013-03-26 05:45:00,
2013-03-26 01:46:00,30.4,24.1,29.61,SSW,206,0.0,0.0,77,0.00,,,0.00,0.00,VWS V14.01,2013-03-26 05:46:00,
2013-03-26 01:47:00,30.4,24.1,29.61,SSW,195,0.0,0.0,77,0.00,,,0.00,0.00,VWS V14.01,2013-03-26 05:47:00,
2013-03-26 01:48:00,30.4,24.1,29.61,South,169,0.0,0.0,77,0.00,,,0.00,0.00,VWS V14.01,2013-03-26 05:48:00,
2013-03-26 01:49:00,30.4,24.1,29.60,South,181,0.0,0.0,77,0.00,,,0.00,0.00,VWS V14.01,2013-03-26 05:49:00,
2013-03-26 01:50:00,30.4,24.1,29.61,SW,219,0.0,0.0,77,0.00,,,0.00,0.00,VWS V14.01,2013-03-26 05:50:00,
2013-03-26 01:51:00,30.4,24.1,29.61,WSW,247,0.0,0.0,77,0.00,,,0.00,0.00,VWS V14.01,2013-03-26 05:51:00,
2013-03-26 01:52:00,30.4,24.1,29.61,West,261,0.0,0.0,77,0.00,,,0.00,0.00,VWS V14.01,2013-03-26 05:52:00,
2013-03-26 01:53:00,30.4,24.1,29.61,West,263,0.0,0.0,77,0.00,,,0.00,0.00,VWS V14.01,2013-03-26 05:53:00,
2013-03-26 01:54:00,30.4,24.1,29.61,SW,226,0.0,0.0,77,0.00,,,0.00,0.00,VWS V14.01,2013-03-26 05:54:00,
2013-03-26 01:55:00,30.4,24.1,29.61,SW,227,0.0,0.0,77,0.00,,,0.00,0.00,VWS V14.01,2013-03-26 05:55:00,
2013-03-26 01:56:00,30.4,24.1,29.61,WNW,282,0.0,0.0,77,0.00,,,0.00,0.00,VWS V14.01,2013-03-26 05:56:00,
2013-03-26 01:57:00,30.4,24.1,29.61,West,272,0.0,0.0,77,0.00,,,0.00,0.00,VWS V14.01,2013-03-26 05:57:00,
2013-03-26 01:58:00,30.4,24.1,29.61,South,191,0.0,0.0,77,0.00,,,0.00,0.00,VWS V14.01,2013-03-26 05:58:00,
2013-03-26 01:59:00,30.4,24.1,29.61,SSW,203,0.0,0.0,77,0.00,,,0.00,0.00,VWS V14.01,2013-03-26 05:59:00,
2013-03-26 02:00:00,30.4,24.1,29.61,SW,227,0.0,0.0,77,0.00,,,0.00,0.00,VWS V14.01,2013-03-26 06:00:00,
2013-03-26 02:01:00,30.4,24.1,29.61,WSW,248,0.0,0.0,77,0.00,,,0.00,0.00,VWS V14.01,2013-03-26 06:01:00,
2013-03-26 02:02:00,30.4,24.1,29.61,West,268,0.0,0.0,77,0.00,,,0.00,0.00,VWS V14.01,2013-03-26 06:02:00,
2013-03-26 02:03:00,30.4,24.1,29.61,SSE,160,0.0,0.0,77,0.00,,,0.00,0.00,VWS V14.01,2013-03-26 06:03:00,
2013-03-26 02:04:00,30.4,24.1,29.61,SSW,200,0.0,0.0,77,0.00,,,0.00,0.00,VWS V14.01,2013-03-26 06:04:00,
2013-03-26 02:05:00,30.4,24.1,29.61,WSW,243,0.0,0.0,77,0.00,,,0.00,0.00,VWS V14.01,2013-03-26 06:05:00,
2013-03-26 02:06:00,30.4,24.1,29.61,West,261,0.0,0.0,77,0.00,,,0.00,0.00,VWS V14.01,2013-03-26 06:06:00,
2013-03-26 02:07:00,30.4,24.1,29.61,SSW,202,0.0,0.0,77,0.00,,,0.00,0.00,VWS V14.01,2013-03-26 06:07:00,
2013-03-26 02:08:00,30.4,24.1,29.61,NW,315,0.0,0.0,77,0.00,,,0.00,0.00,VWS V14.01,2013-03-26 06:08:00,
2013-03-26 02:09:00,30.4,24.1,29.61,WSW,258,0.0,0.0,77,0.00,,,0.00,0.00,VWS V14.01,2013-03-26 06:09:00,
2013-03-26 02:10:00,30.4,24.1,29.61,West,281,0.0,0.0,77,0.00,,,0.00,0.00,VWS V14.01,2013-03-26 06:10:00,
2013-03-26 02:11:00,30.6,24.3,29.61,SW,227,0.0,0.0,77,0.00,,,0.00,0.00,VWS V14.01,2013-03-26 06:11:00,
2013-03-26 02:12:00,30.6,24.3,29.61,South,176,0.0,0.0,77,0.00,,,0.00,0.00,VWS V14.01,2013-03-26 06:12:00,
2013-03-26 02:13:00,30.6,24.3,29.61,WNW,288,0.0,0.0,77,0.00,,,0.00,0.00,VWS V14.01,2013-03-26 06:13:00,
2013-03-26 02:14:00,30.6,24.3,29.61,NNW,329,0.0,0.0,77,0.00,,,0.00,0.00,VWS V14.01,2013-03-26 06:14:00,
2013-03-26 02:15:00,30.4,23.8,29.61,SW,226,0.0,0.0,76,0.00,,,0.00,0.00,VWS V14.01,2013-03-26 06:15:00,
2013-03-26 02:16:00,30.6,24.3,29.61,SW,229,0.0,0.0,77,0.00,,,0.00,0.00,VWS V14.01,2013-03-26 06:16:00,
2013-03-26 02:17:00,30.6,24.3,29.61,West,261,0.0,0.0,77,0.00,,,0.00,0.00,VWS V14.01,2013-03-26 06:17:00,
2013-03-26 02:18:00,30.6,24.0,29.61,SW,234,0.0,0.0,76,0.00,,,0.00,0.00,VWS V14.01,2013-03-26 06:18:00,
2013-03-26 02:19:00,30.6,24.0,29.61,WSW,257,0.0,0.0,76,0.00,,,0.00,0.00,VWS V14.01,2013-03-26 06:19:00,
2013-03-26 02:20:00,30.6,24.3,29.61,WSW,241,0.0,0.0,77,0.00,,,0.00,0.00,VWS V14.01,2013-03-26 06:20:00,
2013-03-26 02:21:00,30.6,24.0,29.61,NW,309,0.0,0.0,76,0.00,,,0.00,0.00,VWS V14.01,2013-03-26 06:21:00,
2013-03-26 02:22:00,30.6,24.0,29.61,WNW,299,0.0,0.0,76,0.00,,,0.00,0.00,VWS V14.01,2013-03-26 06:22:00,
2013-03-26 02:23:00,30.6,24.0,29.61,SSE,162,0.0,0.0,76,0.00,,,0.00,0.00,VWS V14.01,2013-03-26 06:23:00,
2013-03-26 02:24:00,30.6,24.0,29.61,SW,233,0.0,0.0,76,0.00,,,0.00,0.00,VWS V14.01,2013-03-26 06:24:00,
2013-03-26 02:25:00,30.6,24.0,29.61,NW,315,0.0,0.0,76,0.00,,,0.00,0.00,VWS V14.01,2013-03-26 06:25:00,
2013-03-26 02:26:00,30.6,24.0,29.61,West,264,0.0,0.0,76,0.00,,,0.00,0.00,VWS V14.01,2013-03-26 06:26:00,
2013-03-26 02:27:00,30.6,24.0,29.61,SW,224,0.0,0.0,76,0.00,,,0.00,0.00,VWS V14.01,2013-03-26 06:27:00,
2013-03-26 02:28:00,30.6,24.0,29.61,South,181,0.0,0.0,76,0.00,,,0.00,0.00,VWS V14.01,2013-03-26 06:28:00,
2013-03-26 02:29:00,30.6,24.0,29.61,West,270,0.0,0.0,76,0.00,,,0.00,0.00,VWS V14.01,2013-03-26 06:29:00,
2013-03-26 02:30:00,30.6,24.0,29.61,South,191,0.0,0.0,76,0.00,,,0.00,0.00,VWS V14.01,2013-03-26 06:30:00,
2013-03-26 02:31:00,30.6,24.0,29.62,WNW,295,0.0,0.0,76,0.00,,,0.00,0.00,VWS V14.01,2013-03-26 06:31:00,
2013-03-26 02:32:00,30.6,24.0,29.62,West,280,0.0,0.0,76,0.00,,,0.00,0.00,VWS V14.01,2013-03-26 06:32:00,
2013-03-26 02:33:00,30.6,24.0,29.62,SSW,206,0.0,0.0,76,0.00,,,0.00,0.00,VWS V14.01,2013-03-26 06:33:00,
2013-03-26 02:34:00,30.6,24.0,29.62,South,188,0.0,0.0,76,0.00,,,0.00,0.00,VWS V14.01,2013-03-26 06:34:00,
2013-03-26 02:35:00,30.6,24.0,29.62,West,268,0.0,0.0,76,0.00,,,0.00,0.00,VWS V14.01,2013-03-26 06:35:00,
2013-03-26 02:36:00,30.6,24.0,29.62,SW,227,0.0,0.0,76,0.00,,,0.00,0.00,VWS V14.01,2013-03-26 06:36:00,
2013-03-26 02:37:00,30.6,24.0,29.62,SW,227,0.0,0.0,76,0.00,,,0.00,0.00,VWS V14.01,2013-03-26 06:37:00,
2013-03-26 02:38:00,30.6,24.0,29.62,SSW,196,0.0,0.0,76,0.00,,,0.00,0.00,VWS V14.01,2013-03-26 06:38:00,
2013-03-26 02:39:00,30.6,24.0,29.62,SSW,208,0.0,0.0,76,0.00,,,0.00,0.00,VWS V14.01,2013-03-26 06:39:00,
2013-03-26 02:40:00,30.6,24.0,29.62,WSW,258,0.0,0.0,76,0.00,,,0.00,0.00,VWS V14.01,2013-03-26 06:40:00,
2013-03-26 02:41:00,30.6,24.0,29.62,SW,227,0.0,0.0,76,0.00,,,0.00,0.00,VWS V14.01,2013-03-26 06:41:00,
2013-03-26 02:42:00,30.6,24.3,29.62,West,263,0.0,0.0,77,0.00,,,0.00,0.00,VWS V14.01,2013-03-26 06:42:00,
2013-03-26 02:43:00,30.6,24.3,29.62,West,264,0.0,0.0,77,0.00,,,0.00,0.00,VWS V14.01,2013-03-26 06:43:00,
2013-03-26 02:44:00,30.4,23.8,29.62,SSW,210,0.0,0.0,76,0.00,,,0.00,0.00,VWS V14.01,2013-03-26 06:44:00,
2013-03-26 02:45:00,30.4,23.8,29.62,West,263,0.0,0.0,76,0.00,,,0.00,0.00,VWS V14.01,2013-03-26 06:45:00,
2013-03-26 02:46:00,30.6,24.0,29.62,SSW,195,0.0,0.0,76,0.00,,,0.00,0.00,VWS V14.01,2013-03-26 06:46:00,
2013-03-26 02:47:00,30.6,24.3,29.62,West,263,0.0,0.0,77,0.00,,,0.00,0.00,VWS V14.01,2013-03-26 06:47:00,
2013-03-26 02:48:00,30.6,24.0,29.62,West,271,0.0,0.0,76,0.00,,,0.00,0.00,VWS V14.01,2013-03-26 06:48:00,
2013-03-26 02:49:00,30.6,24.0,29.62,West,260,0.0,0.0,76,0.00,,,0.00,0.00,VWS V14.01,2013-03-26 06:49:00,
2013-03-26 02:50:00,30.6,24.0,29.62,South,181,0.0,0.0,76,0.00,,,0.00,0.00,VWS V14.01,2013-03-26 06:50:00,
2013-03-26 02:51:00,30.6,24.0,29.62,NW,304,0.0,0.0,76,0.00,,,0.00,0.00,VWS V14.01,2013-03-26 06:51:00,
2013-03-26 02:52:00,30.6,24.0,29.62,SSE,152,0.0,0.0,76,0.00,,,0.00,0.00,VWS V14.01,2013-03-26 06:52:00,
2013-03-26 02:53:00,30.4,23.8,29.62,West,277,0.0,0.0,76,0.00,,,0.00,0.00,VWS V14.01,2013-03-26 06:53:00,
2013-03-26 02:54:00,30.4,23.8,29.62,WSW,258,0.0,0.0,76,0.00,,,0.00,0.00,VWS V14.01,2013-03-26 06:54:00,
2013-03-26 02:55:00,30.4,23.8,29.62,WSW,243,0.0,0.0,76,0.00,,,0.00,0.00,VWS V14.01,2013-03-26 06:55:00,
2013-03-26 02:56:00,30.4,24.1,29.62,SSW,208,0.0,0.0,77,0.00,,,0.00,0.00,VWS V14.01,2013-03-26 06:56:00,
2013-03-26 02:57:00,30.4,24.1,29.62,SW,236,0.0,0.0,77,0.00,,,0.00,0.00,VWS V14.01,2013-03-26 06:57:00,
2013-03-26 02:58:00,30.4,23.8,29.62,West,277,0.0,0.0,76,0.00,,,0.00,0.00,VWS V14.01,2013-03-26 06:58:00,
2013-03-26 02:59:00,30.4,24.1,29.62,SW,227,0.0,0.0,77,0.00,,,0.00,0.00,VWS V14.01,2013-03-26 06:59:00,
2013-03-26 03:00:00,30.4,24.1,29.62,SSW,192,0.0,0.0,77,0.00,,,0.00,0.00,VWS V14.01,2013-03-26 07:00:00,
2013-03-26 03:01:00,30.4,23.8,29.62,WSW,253,0.0,0.0,76,0.00,,,0.00,0.00,VWS V14.01,2013-03-26 07:01:00,
2013-03-26 03:02:00,30.4,24.1,29.62,South,174,0.0,0.0,77,0.00,,,0.00,0.00,VWS V14.01,2013-03-26 07:02:00,
2013-03-26 03:03:00,30.4,24.1,29.62,WSW,237,0.0,0.0,77,0.00,,,0.00,0.00,VWS V14.01,2013-03-26 07:03:00,
2013-03-26 03:04:00,30.4,24.1,29.62,WSW,257,0.0,0.0,77,0.00,,,0.00,0.00,VWS V14.01,2013-03-26 07:04:00,
2013-03-26 03:05:00,30.4,24.1,29.62,West,263,0.0,0.0,77,0.00,,,0.00,0.00,VWS V14.01,2013-03-26 07:05:00,
2013-03-26 03:06:00,30.4,24.1,29.62,WSW,248,0.0,0.0,77,0.00,,,0.00,0.00,VWS V14.01,2013-03-26 07:06:00,
2013-03-26 03:07:00,30.4,24.1,29.62,SW,234,0.0,0.0,77,0.00,,,0.00,0.00,VWS V14.01,2013-03-26 07:07:00,
2013-03-26 03:08:00,30.4,24.1,29.62,WNW,291,0.0,0.0,77,0.00,,,0.00,0.00,VWS V14.01,2013-03-26 07:08:00,
2013-03-26 03:09:00,30.4,24.1,29.62,SW,230,0.0,0.0,77,0.00,,,0.00,0.00,VWS V14.01,2013-03-26 07:09:00,
2013-03-26 03:10:00,30.4,24.1,29.62,SSW,193,0.0,0.0,77,0.00,,,0.00,0.00,VWS V14.01,2013-03-26 07:10:00,
2013-03-26 03:11:00,30.4,24.1,29.62,WSW,239,0.0,0.0,77,0.00,,,0.00,0.00,VWS V14.01,2013-03-26 07:11:00,
2013-03-26 03:12:00,30.4,24.1,29.62,SSW,193,0.0,0.0,77,0.00,,,0.00,0.00,VWS V14.01,2013-03-26 07:12:00,
2013-03-26 03:13:00,30.4,24.1,29.62,WSW,257,0.0,0.0,77,0.00,,,0.00,0.00,VWS V14.01,2013-03-26 07:13:00,
2013-03-26 03:14:00,30.4,24.1,29.62,SW,230,0.0,0.0,77,0.00,,,0.00,0.00,VWS V14.01,2013-03-26 07:14:00,
2013-03-26 03:15:00,30.4,23.8,29.62,West,274,0.0,0.0,76,0.00,,,0.00,0.00,VWS V14.01,2013-03-26 07:15:00,
2013-03-26 03:16:00,30.4,23.8,29.62,West,275,0.0,0.0,76,0.00,,,0.00,0.00,VWS V14.01,2013-03-26 07:16:00,
2013-03-26 03:17:00,30.4,23.8,29.62,South,182,0.0,0.0,76,0.00,,,0.00,0.00,VWS V14.01,2013-03-26 07:17:00,
2013-03-26 03:18:00,30.4,23.8,29.62,SSW,209,0.0,0.0,76,0.00,,,0.00,0.00,VWS V14.01,2013-03-26 07:18:00,
2013-03-26 03:19:00,30.4,23.8,29.62,SSW,192,0.0,0.0,76,0.00,,,0.00,0.00,VWS V14.01,2013-03-26 07:19:00,
2013-03-26 03:20:00,30.4,23.8,29.62,West,274,0.0,0.0,76,0.00,,,0.00,0.00,VWS V14.01,2013-03-26 07:20:00,
2013-03-26 03:21:00,30.4,23.8,29.62,West,261,0.0,0.0,76,0.00,,,0.00,0.00,VWS V14.01,2013-03-26 07:21:00,
2013-03-26 03:22:00,30.4,23.8,29.62,SW,216,0.0,0.0,76,0.00,,,0.00,0.00,VWS V14.01,2013-03-26 07:22:00,
2013-03-26 03:23:00,30.4,23.8,29.62,WSW,247,0.0,0.0,76,0.00,,,0.00,0.00,VWS V14.01,2013-03-26 07:23:00,
2013-03-26 03:24:00,30.4,23.8,29.62,West,277,0.0,0.0,76,0.00,,,0.00,0.00,VWS V14.01,2013-03-26 07:24:00,
2013-03-26 03:25:00,30.4,23.8,29.62,WNW,294,0.0,0.0,76,0.00,,,0.00,0.00,VWS V14.01,2013-03-26 07:25:00,
2013-03-26 03:26:00,30.4,24.1,29.62,West,268,0.0,0.0,77,0.00,,,0.00,0.00,VWS V14.01,2013-03-26 07:26:00,
2013-03-26 03:27:00,30.4,24.1,29.62,WNW,285,0.0,0.0,77,0.00,,,0.00,0.00,VWS V14.01,2013-03-26 07:27:00,
2013-03-26 03:28:00,30.4,24.1,29.62,SSE,167,0.0,0.0,77,0.00,,,0.00,0.00,VWS V14.01,2013-03-26 07:28:00,
2013-03-26 03:29:00,30.4,23.8,29.62,SW,223,0.0,0.0,76,0.00,,,0.00,0.00,VWS V14.01,2013-03-26 07:29:00,
2013-03-26 03:30:00,30.4,23.8,29.62,SW,230,0.0,0.0,76,0.00,,,0.00,0.00,VWS V14.01,2013-03-26 07:30:00,
2013-03-26 03:31:00,30.4,23.8,29.62,WSW,248,0.0,0.0,76,0.00,,,0.00,0.00,VWS V14.01,2013-03-26 07:31:00,
2013-03-26 03:32:00,30.4,23.8,29.62,South,172,0.0,0.0,76,0.00,,,0.00,0.00,VWS V14.01,2013-03-26 07:32:00,
2013-03-26 03:33:00,30.4,23.8,29.62,WSW,241,0.0,0.0,76,0.00,,,0.00,0.00,VWS V14.01,2013-03-26 07:33:00,
2013-03-26 03:34:00,30.4,23.8,29.62,West,265,0.0,0.0,76,0.00,,,0.00,0.00,VWS V14.01,2013-03-26 07:34:00,
2013-03-26 03:35:00,30.4,23.8,29.62,SW,236,0.0,0.0,76,0.00,,,0.00,0.00,VWS V14.01,2013-03-26 07:35:00,
2013-03-26 03:36:00,30.4,23.8,29.62,WSW,248,0.0,0.0,76,0.00,,,0.00,0.00,VWS V14.01,2013-03-26 07:36:00,
2013-03-26 03:37:00,30.4,23.8,29.62,SE,137,0.0,0.0,76,0.00,,,0.00,0.00,VWS V14.01,2013-03-26 07:37:00,
2013-03-26 03:38:00,30.4,23.8,29.62,West,263,0.0,0.0,76,0.00,,,0.00,0.00,VWS V14.01,2013-03-26 07:38:00,
2013-03-26 03:39:00,30.4,23.8,29.62,West,267,0.0,0.0,76,0.00,,,0.00,0.00,VWS V14.01,2013-03-26 07:39:00,
2013-03-26 03:40:00,30.4,23.8,29.62,SSE,165,0.0,0.0,76,0.00,,,0.00,0.00,VWS V14.01,2013-03-26 07:40:00,
2013-03-26 03:41:00,30.4,23.8,29.62,WSW,258,0.0,0.0,76,0.00,,,0.00,0.00,VWS V14.01,2013-03-26 07:41:00,
2013-03-26 03:42:00,30.4,23.8,29.62,SE,137,0.0,0.0,76,0.00,,,0.00,0.00,VWS V14.01,2013-03-26 07:42:00,
2013-03-26 03:43:00,30.4,23.8,29.62,WNW,291,0.0,0.0,76,0.00,,,0.00,0.00,VWS V14.01,2013-03-26 07:43:00,
2013-03-26 03:44:00,30.4,23.8,29.62,SW,215,0.0,0.0,76,0.00,,,0.00,0.00,VWS V14.01,2013-03-26 07:44:00,
2013-03-26 03:45:00,30.4,23.8,29.63,West,281,0.0,0.0,76,0.00,,,0.00,0.00,VWS V14.01,2013-03-26 07:45:00,
2013-03-26 03:46:00,30.4,23.8,29.63,WSW,244,0.0,0.0,76,0.00,,,0.00,0.00,VWS V14.01,2013-03-26 07:46:00,
2013-03-26 03:47:00,30.4,23.8,29.62,South,174,0.0,0.0,76,0.00,,,0.00,0.00,VWS V14.01,2013-03-26 07:47:00,
2013-03-26 03:48:00,30.4,23.8,29.63,WSW,239,0.0,0.0,76,0.00,,,0.00,0.00,VWS V14.01,2013-03-26 07:48:00,
2013-03-26 03:49:00,30.4,23.8,29.63,West,270,0.0,0.0,76,0.00,,,0.00,0.00,VWS V14.01,2013-03-26 07:49:00,
2013-03-26 03:50:00,30.4,23.8,29.63,South,175,0.0,0.0,76,0.00,,,0.00,0.00,VWS V14.01,2013-03-26 07:50:00,
2013-03-26 03:51:00,30.4,23.8,29.63,WSW,253,0.0,0.0,76,0.00,,,0.00,0.00,VWS V14.01,2013-03-26 07:51:00,
2013-03-26 03:52:00,30.4,23.8,29.63,WNW,287,0.0,0.0,76,0.00,,,0.00,0.00,VWS V14.01,2013-03-26 07:52:00,
2013-03-26 03:53:00,30.4,23.8,29.63,South,189,0.0,0.0,76,0.00,,,0.00,0.00,VWS V14.01,2013-03-26 07:53:00,
2013-03-26 03:54:00,30.4,23.8,29.63,SSW,193,0.0,0.0,76,0.00,,,0.00,0.00,VWS V14.01,2013-03-26 07:54:00,
2013-03-26 03:55:00,30.4,23.8,29.63,WSW,256,0.0,0.0,76,0.00,,,0.00,0.00,VWS V14.01,2013-03-26 07:55:00,
2013-03-26 03:56:00,30.4,23.8,29.63,WSW,253,0.0,0.0,76,0.00,,,0.00,0.00,VWS V14.01,2013-03-26 07:56:00,
2013-03-26 03:57:00,30.4,23.8,29.63,SSW,205,0.0,0.0,76,0.00,,,0.00,0.00,VWS V14.01,2013-03-26 07:57:00,
2013-03-26 03:58:00,30.4,23.8,29.63,South,189,0.0,0.0,76,0.00,,,0.00,0.00,VWS V14.01,2013-03-26 07:58:00,
2013-03-26 03:59:00,30.4,23.8,29.63,West,260,0.0,0.0,76,0.00,,,0.00,0.00,VWS V14.01,2013-03-26 07:59:00,
2013-03-26 04:00:00,30.4,23.8,29.63,WSW,257,0.0,0.0,76,0.00,,,0.00,0.00,VWS V14.01,2013-03-26 08:00:00,
2013-03-26 04:01:00,30.4,23.4,29.63,WNW,295,0.0,0.0,75,0.00,,,0.00,0.00,VWS V14.01,2013-03-26 08:01:00,
2013-03-26 04:02:00,30.4,23.4,29.63,WSW,248,0.0,0.0,75,0.00,,,0.00,0.00,VWS V14.01,2013-03-26 08:02:00,
2013-03-26 04:03:00,30.4,23.8,29.63,West,275,0.0,0.0,76,0.00,,,0.00,0.00,VWS V14.01,2013-03-26 08:03:00,
2013-03-26 04:04:00,30.4,23.4,29.63,WNW,288,0.0,0.0,75,0.00,,,0.00,0.00,VWS V14.01,2013-03-26 08:04:00,
2013-03-26 04:05:00,30.4,23.4,29.63,SSW,206,0.0,0.0,75,0.00,,,0.00,0.00,VWS V14.01,2013-03-26 08:05:00,
2013-03-26 04:06:00,30.4,23.4,29.63,SW,234,0.0,0.0,75,0.00,,,0.00,0.00,VWS V14.01,2013-03-26 08:06:00,
2013-03-26 04:07:00,30.4,23.4,29.63,West,281,0.0,0.0,75,0.00,,,0.00,0.00,VWS V14.01,2013-03-26 08:07:00,
2013-03-26 04:08:00,30.4,23.4,29.63,WSW,248,0.0,0.0,75,0.00,,,0.00,0.00,VWS V14.01,2013-03-26 08:08:00,
2013-03-26 04:09:00,30.4,23.4,29.63,WNW,288,0.0,0.0,75,0.00,,,0.00,0.00,VWS V14.01,2013-03-26 08:09:00,
2013-03-26 04:10:00,30.4,23.4,29.63,WSW,253,0.0,0.0,75,0.00,,,0.00,0.00,VWS V14.01,2013-03-26 08:10:00,
2013-03-26 04:11:00,30.4,23.4,29.63,West,267,0.0,0.0,75,0.00,,,0.00,0.00,VWS V14.01,2013-03-26 08:11:00,
2013-03-26 04:12:00,30.4,23.4,29.63,SW,236,0.0,0.0,75,0.00,,,0.00,0.00,VWS V14.01,2013-03-26 08:12:00,
2013-03-26 04:13:00,30.4,23.4,29.63,SW,220,0.0,0.0,75,0.00,,,0.00,0.00,VWS V14.01,2013-03-26 08:13:00,
2013-03-26 04:14:00,30.4,23.4,29.63,West,275,0.0,0.0,75,0.00,,,0.00,0.00,VWS V14.01,2013-03-26 08:14:00,
2013-03-26 04:15:00,30.4,23.8,29.64,SSE,167,0.0,0.0,76,0.00,,,0.00,0.00,VWS V14.01,2013-03-26 08:15:00,
2013-03-26 04:16:00,30.4,23.8,29.64,WSW,244,0.0,0.0,76,0.00,,,0.00,0.00,VWS V14.01,2013-03-26 08:16:00,
2013-03-26 04:17:00,30.4,23.4,29.64,WSW,239,0.0,0.0,75,0.00,,,0.00,0.00,VWS V14.01,2013-03-26 08:17:00,
2013-03-26 04:18:00,30.4,23.4,29.64,SW,229,0.0,0.0,75,0.00,,,0.00,0.00,VWS V14.01,2013-03-26 08:18:00,
2013-03-26 04:19:00,30.4,23.4,29.64,WSW,239,0.0,0.0,75,0.00,,,0.00,0.00,VWS V14.01,2013-03-26 08:19:00,
2013-03-26 04:20:00,30.4,23.8,29.64,SSE,167,0.0,0.0,76,0.00,,,0.00,0.00,VWS V14.01,2013-03-26 08:20:00,
2013-03-26 04:21:00,30.4,23.4,29.64,WNW,296,0.0,0.0,75,0.00,,,0.00,0.00,VWS V14.01,2013-03-26 08:21:00,
2013-03-26 04:22:00,30.4,23.4,29.64,SW,224,0.0,0.0,75,0.00,,,0.00,0.00,VWS V14.01,2013-03-26 08:22:00,
2013-03-26 04:23:00,30.4,23.4,29.64,SW,230,0.0,0.0,75,0.00,,,0.00,0.00,VWS V14.01,2013-03-26 08:23:00,
2013-03-26 04:24:00,30.4,23.4,29.64,SW,224,0.0,0.0,75,0.00,,,0.00,0.00,VWS V14.01,2013-03-26 08:24:00,
2013-03-26 04:25:00,30.4,23.4,29.64,SSW,212,0.0,0.0,75,0.00,,,0.00,0.00,VWS V14.01,2013-03-26 08:25:00,
2013-03-26 04:26:00,30.4,23.4,29.64,South,182,0.0,0.0,75,0.00,,,0.00,0.00,VWS V14.01,2013-03-26 08:26:00,
2013-03-26 04:27:00,30.4,23.4,29.64,SW,223,0.0,0.0,75,0.00,,,0.00,0.00,VWS V14.01,2013-03-26 08:27:00,
2013-03-26 04:28:00,30.4,23.4,29.64,SW,227,0.0,0.0,75,0.00,,,0.00,0.00,VWS V14.01,2013-03-26 08:28:00,
2013-03-26 04:29:00,30.4,23.4,29.64,WSW,246,0.0,0.0,75,0.00,,,0.00,0.00,VWS V14.01,2013-03-26 08:29:00,
2013-03-26 04:30:00,30.4,23.8,29.64,WSW,250,0.0,0.0,76,0.00,,,0.00,0.00,VWS V14.01,2013-03-26 08:30:00,
2013-03-26 04:31:00,30.4,23.4,29.64,West,261,0.0,0.0,75,0.00,,,0.00,0.00,VWS V14.01,2013-03-26 08:31:00,
2013-03-26 04:32:00,30.3,23.3,29.64,WSW,253,0.0,0.0,75,0.00,,,0.00,0.00,VWS V14.01,2013-03-26 08:32:00,
2013-03-26 04:33:00,30.3,23.3,29.64,West,264,0.0,0.0,75,0.00,,,0.00,0.00,VWS V14.01,2013-03-26 08:33:00,
2013-03-26 04:34:00,30.4,23.4,29.64,South,191,0.0,0.0,75,0.00,,,0.00,0.00,VWS V14.01,2013-03-26 08:34:00,
2013-03-26 04:35:00,30.4,23.4,29.64,South,175,0.0,0.0,75,0.00,,,0.00,0.00,VWS V14.01,2013-03-26 08:35:00,
2013-03-26 04:36:00,30.4,23.4,29.64,West,261,0.0,0.0,75,0.00,,,0.00,0.00,VWS V14.01,2013-03-26 08:36:00,
2013-03-26 04:37:00,30.4,23.4,29.64,WSW,256,0.0,0.0,75,0.00,,,0.00,0.00,VWS V14.01,2013-03-26 08:37:00,
2013-03-26 04:38:00,30.4,23.4,29.64,WSW,241,0.0,0.0,75,0.00,,,0.00,0.00,VWS V14.01,2013-03-26 08:38:00,
2013-03-26 04:39:00,30.4,23.4,29.64,WSW,246,0.0,0.0,75,0.00,,,0.00,0.00,VWS V14.01,2013-03-26 08:39:00,
2013-03-26 04:40:00,30.4,23.4,29.64,West,261,0.0,0.0,75,0.00,,,0.00,0.00,VWS V14.01,2013-03-26 08:40:00,
2013-03-26 04:41:00,30.4,23.4,29.64,West,275,0.0,0.0,75,0.00,,,0.00,0.00,VWS V14.01,2013-03-26 08:41:00,
2013-03-26 04:42:00,30.4,23.4,29.64,WSW,256,0.0,0.0,75,0.00,,,0.00,0.00,VWS V14.01,2013-03-26 08:42:00,
2013-03-26 04:43:00,30.4,23.4,29.64,WSW,258,0.0,0.0,75,0.00,,,0.00,0.00,VWS V14.01,2013-03-26 08:43:00,
2013-03-26 04:44:00,30.4,23.4,29.64,WSW,244,0.0,0.0,75,0.00,,,0.00,0.00,VWS V14.01,2013-03-26 08:44:00,
2013-03-26 04:45:00,30.4,23.4,29.63,WSW,257,0.0,0.0,75,0.00,,,0.00,0.00,VWS V14.01,2013-03-26 08:45:00,
2013-03-26 04:46:00,30.4,23.4,29.63,WSW,257,0.0,0.0,75,0.00,,,0.00,0.00,VWS V14.01,2013-03-26 08:46:00,
2013-03-26 04:47:00,30.4,23.4,29.63,WSW,256,0.0,0.0,75,0.00,,,0.00,0.00,VWS V14.01,2013-03-26 08:47:00,
2013-03-26 04:48:00,30.4,23.4,29.64,WSW,258,0.0,0.0,75,0.00,,,0.00,0.00,VWS V14.01,2013-03-26 08:48:00,
2013-03-26 04:49:00,30.4,23.4,29.63,WSW,243,0.0,0.0,75,0.00,,,0.00,0.00,VWS V14.01,2013-03-26 08:49:00,
2013-03-26 04:50:00,30.4,23.4,29.63,SW,224,0.0,0.0,75,0.00,,,0.00,0.00,VWS V14.01,2013-03-26 08:50:00,
2013-03-26 04:53:00,30.4,23.4,29.63,SW,224,0.0,0.0,75,0.00,,,0.00,0.00,VWS V14.01,2013-03-26 08:53:00,
2013-03-26 04:59:00,30.4,23.1,29.63,WSW,240,0.0,0.0,74,0.00,,,0.00,0.00,VWS V14.01,2013-03-26 08:59:00,
2013-03-26 05:05:00,30.4,23.1,29.64,WSW,254,0.0,0.0,74,0.00,,,0.00,0.00,VWS V14.01,2013-03-26 09:05:00,
2013-03-26 05:10:00,30.4,23.1,29.64,SW,233,0.0,0.0,74,0.00,,,0.00,0.00,VWS V14.01,2013-03-26 09:10:00,
2013-03-26 05:16:00,30.4,23.1,29.64,West,274,0.0,0.0,74,0.00,,,0.00,0.00,VWS V14.01,2013-03-26 09:16:00,
2013-03-26 05:22:00,30.4,23.1,29.64,SSW,199,0.0,0.0,74,0.00,,,0.00,0.00,VWS V14.01,2013-03-26 09:22:00,
2013-03-26 05:27:00,30.6,23.3,29.64,West,267,0.0,0.0,74,0.00,,,0.00,0.00,VWS V14.01,2013-03-26 09:27:00,
2013-03-26 05:33:00,30.6,23.6,29.64,WNW,302,0.0,0.0,75,0.00,,,0.00,0.00,VWS V14.01,2013-03-26 09:33:00,
2013-03-26 05:39:00,30.6,23.6,29.65,West,263,0.0,0.0,75,0.00,,,0.00,0.00,VWS V14.01,2013-03-26 09:39:00,
2013-03-26 05:44:00,30.6,23.6,29.65,WNW,285,0.0,0.0,75,0.00,,,0.00,0.00,VWS V14.01,2013-03-26 09:44:00,
2013-03-26 05:49:00,30.6,24.0,29.65,WSW,240,0.0,0.0,76,0.00,,,0.00,0.00,VWS V14.01,2013-03-26 09:49:00,
2013-03-26 05:55:00,30.4,23.8,29.65,West,280,0.0,0.0,76,0.00,,,0.00,0.00,VWS V14.01,2013-03-26 09:55:00,
2013-03-26 06:00:00,30.4,23.8,29.65,West,278,0.0,0.0,76,0.00,,,0.00,0.00,VWS V14.01,2013-03-26 10:00:00,
2013-03-26 06:05:00,30.4,23.8,29.65,West,274,0.0,0.0,76,0.00,,,0.00,0.00,VWS V14.01,2013-03-26 10:05:00,
2013-03-26 06:10:00,30.4,24.1,29.65,SW,232,0.0,0.0,77,0.00,,,0.00,0.00,VWS V14.01,2013-03-26 10:10:00,
2013-03-26 06:16:00,30.4,24.1,29.65,SSW,198,0.0,0.0,77,0.00,,,0.00,0.00,VWS V14.01,2013-03-26 10:16:00,
2013-03-26 06:21:00,30.4,24.1,29.66,West,280,0.0,0.0,77,0.00,,,0.00,0.00,VWS V14.01,2013-03-26 10:21:00,
2013-03-26 06:27:00,30.4,24.1,29.66,WSW,246,0.0,0.0,77,0.00,,,0.00,0.00,VWS V14.01,2013-03-26 10:27:00,
2013-03-26 06:32:00,30.4,24.1,29.66,WSW,254,0.0,0.0,77,0.00,,,0.00,0.00,VWS V14.01,2013-03-26 10:32:00,
2013-03-26 06:37:00,30.4,24.1,29.67,SSW,198,0.0,0.0,77,0.00,,,0.00,0.00,VWS V14.01,2013-03-26 10:37:00,
2013-03-26 06:42:00,30.4,24.4,29.67,West,274,0.0,0.0,78,0.00,,,0.00,0.00,VWS V14.01,2013-03-26 10:42:00,
2013-03-26 06:48:00,30.4,24.4,29.67,West,263,0.0,0.0,78,0.00,,,0.00,0.00,VWS V14.01,2013-03-26 10:48:00,
2013-03-26 06:54:00,30.3,24.3,29.67,SW,236,0.0,0.0,78,0.00,,,0.00,0.00,VWS V14.01,2013-03-26 10:54:00,
2013-03-26 06:59:00,30.3,24.6,29.67,SSE,168,0.0,0.0,79,0.00,,,0.00,0.00,VWS V14.01,2013-03-26 10:59:00,
2013-03-26 07:05:00,30.3,24.6,29.67,WSW,243,0.0,0.0,79,0.00,,,0.00,0.00,VWS V14.01,2013-03-26 11:05:00,
2013-03-26 07:10:00,30.3,24.6,29.67,SSW,210,0.0,0.0,79,0.00,,,0.00,0.00,VWS V14.01,2013-03-26 11:10:00,
2013-03-26 07:15:00,30.3,24.6,29.67,West,260,0.0,0.0,79,0.00,,,0.00,0.00,VWS V14.01,2013-03-26 11:15:00,
2013-03-26 07:21:00,30.3,24.9,29.68,South,169,0.0,0.0,80,0.00,,,0.00,0.00,VWS V14.01,2013-03-26 11:21:00,
2013-03-26 07:27:00,30.3,24.9,29.68,SW,236,0.0,0.0,80,0.00,,,0.00,0.00,VWS V14.01,2013-03-26 11:27:00,
2013-03-26 07:32:00,30.3,24.9,29.68,West,280,0.0,0.0,80,0.00,,,0.00,0.00,VWS V14.01,2013-03-26 11:32:00,
2013-03-26 07:37:00,30.3,25.2,29.69,SW,227,0.0,0.0,81,0.00,,,0.00,0.00,VWS V14.01,2013-03-26 11:37:00,
2013-03-26 07:43:00,30.3,25.2,29.69,WSW,246,0.0,0.0,81,0.00,,,0.00,5.00,VWS V14.01,2013-03-26 11:43:00,
2013-03-26 07:49:00,30.3,25.2,29.69,SSW,213,0.0,0.0,81,0.00,,,0.00,11.00,VWS V14.01,2013-03-26 11:49:00,
2013-03-26 07:55:00,30.3,25.2,29.69,WNW,284,0.0,0.0,81,0.00,,,0.00,25.00,VWS V14.01,2013-03-26 11:55:00,
2013-03-26 08:00:00,30.3,25.2,29.69,WSW,254,0.0,0.0,81,0.00,,,0.00,28.00,VWS V14.01,2013-03-26 12:00:00,
2013-03-26 08:05:00,30.3,25.5,29.70,West,261,0.0,0.0,82,0.00,,,0.00,26.00,VWS V14.01,2013-03-26 12:05:00,
2013-03-26 08:10:00,30.3,25.5,29.70,WSW,241,0.0,0.0,82,0.00,,,0.00,32.00,VWS V14.01,2013-03-26 12:10:00,
2013-03-26 08:15:00,30.3,25.5,29.70,West,275,0.0,0.0,82,0.00,,,0.00,33.00,VWS V14.01,2013-03-26 12:15:00,
2013-03-26 08:21:00,30.4,25.6,29.70,West,268,0.0,0.0,82,0.00,,,0.00,30.00,VWS V14.01,2013-03-26 12:21:00,
2013-03-26 08:26:00,30.4,25.6,29.70,West,268,0.0,0.0,82,0.00,,,0.00,32.00,VWS V14.01,2013-03-26 12:26:00,
2013-03-26 08:32:00,30.4,25.6,29.70,West,268,0.0,0.0,82,0.00,,,0.00,70.00,VWS V14.01,2013-03-26 12:32:00,
2013-03-26 08:38:00,30.4,25.6,29.71,SSW,203,0.0,0.0,82,0.00,,,0.00,67.00,VWS V14.01,2013-03-26 12:38:00,
2013-03-26 08:44:00,30.6,25.8,29.71,South,178,0.0,0.0,82,0.00,,,0.00,77.00,VWS V14.01,2013-03-26 12:44:00,
2013-03-26 08:50:00,30.6,25.8,29.71,WSW,239,0.0,0.0,82,0.00,,,0.00,104.00,VWS V14.01,2013-03-26 12:50:00,
2013-03-26 08:55:00,30.7,25.9,29.71,WNW,287,0.0,0.0,82,0.00,,,0.00,141.00,VWS V14.01,2013-03-26 12:55:00,
2013-03-26 09:02:00,30.9,26.1,29.71,WSW,253,0.0,0.0,82,0.00,,,0.00,95.00,VWS V14.01,2013-03-26 13:02:00,
2013-03-26 09:07:00,30.9,26.1,29.71,WSW,250,0.0,0.0,82,0.00,,,0.00,100.00,VWS V14.01,2013-03-26 13:07:00,
2013-03-26 09:12:00,30.9,26.1,29.71,WSW,253,0.0,0.0,82,0.00,,,0.00,109.00,VWS V14.01,2013-03-26 13:12:00,
2013-03-26 09:18:00,30.9,25.8,29.71,WSW,258,0.0,0.0,81,0.00,,,0.00,146.00,VWS V14.01,2013-03-26 13:18:00,
2013-03-26 09:23:00,31.0,25.9,29.72,West,265,0.0,0.0,81,0.00,,,0.00,250.00,VWS V14.01,2013-03-26 13:23:00,
2013-03-26 09:29:00,31.3,26.2,29.72,West,261,0.0,0.0,81,0.00,,,0.00,289.00,VWS V14.01,2013-03-26 13:29:00,
2013-03-26 09:35:00,31.6,26.1,29.72,WSW,240,0.0,0.0,80,0.00,,,0.00,218.00,VWS V14.01,2013-03-26 13:35:00,
2013-03-26 09:40:00,32.1,26.6,29.72,West,260,0.0,0.0,80,0.00,,,0.00,259.00,VWS V14.01,2013-03-26 13:40:00,
2013-03-26 09:45:00,32.2,26.1,29.72,West,261,0.0,0.0,78,0.00,,,0.00,227.00,VWS V14.01,2013-03-26 13:45:00,
2013-03-26 09:50:00,32.4,26.0,29.73,West,260,0.0,0.0,77,0.00,,,0.00,222.00,VWS V14.01,2013-03-26 13:50:00,
2013-03-26 09:56:00,32.5,26.1,29.73,WNW,282,0.0,0.0,77,0.00,,,0.00,266.00,VWS V14.01,2013-03-26 13:56:00,
2013-03-26 10:01:00,32.9,26.2,29.73,WSW,243,0.0,0.0,76,0.00,,,0.00,289.00,VWS V14.01,2013-03-26 14:01:00,
2013-03-26 10:07:00,33.2,25.8,29.73,WSW,247,0.0,0.0,74,0.00,,,0.00,236.00,VWS V14.01,2013-03-26 14:07:00,
2013-03-26 10:13:00,33.1,25.7,29.73,West,271,0.0,0.0,74,0.00,,,0.00,206.00,VWS V14.01,2013-03-26 14:13:00,
2013-03-26 10:18:00,33.1,26.0,29.73,West,278,0.0,0.0,75,0.00,,,0.00,239.00,VWS V14.01,2013-03-26 14:18:00,
2013-03-26 10:24:00,33.1,26.0,29.74,West,267,0.0,0.0,75,0.00,,,0.00,208.00,VWS V14.01,2013-03-26 14:24:00,
2013-03-26 10:29:00,33.2,26.5,29.74,West,268,0.0,0.0,76,0.00,,,0.00,289.00,VWS V14.01,2013-03-26 14:29:00,
2013-03-26 10:35:00,33.1,25.7,29.74,West,267,0.0,0.0,74,0.00,,,0.00,320.00,VWS V14.01,2013-03-26 14:35:00,
2013-03-26 10:40:00,33.1,26.0,29.74,West,271,0.0,0.0,75,0.00,,,0.00,292.00,VWS V14.01,2013-03-26 14:40:00,
2013-03-26 10:47:00,33.4,26.3,29.74,West,263,0.0,0.0,75,0.01,,,0.01,289.00,VWS V14.01,2013-03-26 14:47:00,
2013-03-26 10:52:00,33.4,26.0,29.75,SSW,208,0.0,0.0,74,0.01,,,0.01,227.00,VWS V14.01,2013-03-26 14:52:00,
2013-03-26 10:58:00,33.4,25.7,29.75,WSW,250,0.0,0.0,73,0.01,,,0.01,223.00,VWS V14.01,2013-03-26 14:58:00,
2013-03-26 11:04:00,33.4,25.4,29.75,West,271,0.0,0.0,72,0.01,,,0.01,153.00,VWS V14.01,2013-03-26 15:04:00,
2013-03-26 11:09:00,33.4,25.7,29.76,West,267,0.0,0.0,73,0.02,,,0.02,246.00,VWS V14.01,2013-03-26 15:09:00,
2013-03-26 11:15:00,33.7,26.0,29.76,WSW,254,0.0,0.0,73,0.02,,,0.02,269.00,VWS V14.01,2013-03-26 15:15:00,
2013-03-26 11:21:00,33.8,25.4,29.76,West,280,0.0,0.0,71,0.02,,,0.02,236.00,VWS V14.01,2013-03-26 15:21:00,
2013-03-26 11:26:00,33.5,24.8,29.76,WNW,299,0.0,0.0,70,0.02,,,0.02,245.00,VWS V14.01,2013-03-26 15:26:00,
2013-03-26 11:31:00,33.5,25.5,29.76,WSW,248,0.0,0.0,72,0.02,,,0.02,241.00,VWS V14.01,2013-03-26 15:31:00,
2013-03-26 11:37:00,33.5,25.8,29.77,West,268,0.0,0.0,73,0.02,,,0.02,306.00,VWS V14.01,2013-03-26 15:37:00,
2013-03-26 11:42:00,33.7,25.6,29.77,WNW,289,0.0,0.0,72,0.02,,,0.02,294.00,VWS V14.01,2013-03-26 15:42:00,
2013-03-26 11:47:00,33.5,25.5,29.77,WSW,256,0.0,0.0,72,0.01,,,0.02,318.00,VWS V14.01,2013-03-26 15:47:00,
2013-03-26 11:53:00,33.5,25.1,29.77,WSW,239,0.0,0.0,71,0.02,,,0.03,322.00,VWS V14.01,2013-03-26 15:53:00,
2013-03-26 12:03:00,33.8,25.4,29.77,WSW,251,0.0,0.0,71,0.02,,,0.03,320.00,VWS V14.01,2013-03-26 16:03:00,
2013-03-26 12:08:00,34.0,25.6,29.77,West,274,0.0,0.0,71,0.03,,,0.04,301.00,VWS V14.01,2013-03-26 16:08:00,
2013-03-26 12:13:00,34.1,25.7,29.77,West,274,0.0,0.0,71,0.02,,,0.04,253.00,VWS V14.01,2013-03-26 16:13:00,
2013-03-26 12:18:00,34.1,25.7,29.77,West,270,0.0,0.0,71,0.02,,,0.04,238.00,VWS V14.01,2013-03-26 16:18:00,
2013-03-26 12:24:00,34.0,25.6,29.77,WSW,256,0.0,0.0,71,0.02,,,0.04,331.00,VWS V14.01,2013-03-26 16:24:00,
2013-03-26 12:29:00,34.1,26.0,29.77,WSW,258,0.0,0.0,72,0.02,,,0.04,289.00,VWS V14.01,2013-03-26 16:29:00,
2013-03-26 12:34:00,34.0,26.3,29.77,West,270,0.0,0.0,73,0.03,,,0.05,338.00,VWS V14.01,2013-03-26 16:34:00,
2013-03-26 12:39:00,34.3,26.6,29.78,South,179,0.0,0.0,73,0.03,,,0.05,243.00,VWS V14.01,2013-03-26 16:39:00,
2013-03-26 12:44:00,34.6,27.2,29.78,SW,230,0.0,0.0,74,0.03,,,0.05,290.00,VWS V14.01,2013-03-26 16:44:00,
2013-03-26 12:50:00,34.6,26.5,29.78,West,277,0.0,0.0,72,0.02,,,0.05,320.00,VWS V14.01,2013-03-26 16:50:00,
2013-03-26 12:55:00,34.6,26.5,29.78,WSW,257,0.0,0.0,72,0.03,,,0.06,382.00,VWS V14.01,2013-03-26 16:55:00,
2013-03-26 13:01:00,34.7,26.3,29.78,WNW,285,0.0,0.0,71,0.03,,,0.06,327.00,VWS V14.01,2013-03-26 17:01:00,
2013-03-26 13:07:00,35.0,26.9,29.78,WSW,244,0.0,0.0,72,0.02,,,0.06,238.00,VWS V14.01,2013-03-26 17:07:00,
2013-03-26 13:12:00,34.9,26.8,29.78,West,260,0.0,0.0,72,0.02,,,0.06,276.00,VWS V14.01,2013-03-26 17:12:00,
2013-03-26 13:18:00,34.9,27.5,29.78,SW,224,0.0,0.0,74,0.03,,,0.07,326.00,VWS V14.01,2013-03-26 17:18:00,
2013-03-26 13:23:00,34.9,27.1,29.78,SW,217,0.0,0.0,73,0.03,,,0.07,333.00,VWS V14.01,2013-03-26 17:23:00,
2013-03-26 13:28:00,34.9,26.5,29.78,West,268,0.0,0.0,71,0.03,,,0.07,336.00,VWS V14.01,2013-03-26 17:28:00,
2013-03-26 13:33:00,35.0,26.2,29.78,WNW,282,0.0,0.0,70,0.04,,,0.08,489.00,VWS V14.01,2013-03-26 17:33:00,
2013-03-26 13:39:00,35.2,25.7,29.78,WNW,287,0.0,0.0,68,0.03,,,0.08,480.00,VWS V14.01,2013-03-26 17:39:00,
2013-03-26 13:44:00,35.5,25.6,29.78,West,274,0.0,0.0,67,0.03,,,0.08,357.00,VWS V14.01,2013-03-26 17:44:00,
2013-03-26 13:50:00,35.3,26.2,29.78,SW,230,0.0,0.0,69,0.04,,,0.09,384.00,VWS V14.01,2013-03-26 17:50:00,
2013-03-26 13:55:00,35.3,26.9,29.78,West,274,0.0,0.0,71,0.03,,,0.09,213.00,VWS V14.01,2013-03-26 17:55:00,
2013-03-26 14:01:00,34.9,27.1,29.78,NW,304,0.0,0.0,73,0.04,,,0.10,176.00,VWS V14.01,2013-03-26 18:01:00,
2013-03-26 14:06:00,34.4,26.7,29.79,West,271,0.0,0.0,73,0.04,,,0.10,396.00,VWS V14.01,2013-03-26 18:06:00,
2013-03-26 14:12:00,34.9,26.1,29.79,West,280,0.0,0.0,70,0.04,,,0.10,493.00,VWS V14.01,2013-03-26 18:12:00,
2013-03-26 14:18:00,35.3,25.5,29.79,WNW,296,0.0,0.0,67,0.03,,,0.10,278.00,VWS V14.01,2013-03-26 18:18:00,
2013-03-26 14:23:00,35.3,25.5,29.78,WSW,250,0.0,0.0,67,0.04,,,0.11,257.00,VWS V14.01,2013-03-26 18:23:00,
2013-03-26 14:28:00,35.5,26.4,29.78,SW,234,0.0,0.0,69,0.04,,,0.11,417.00,VWS V14.01,2013-03-26 18:28:00,
2013-03-26 14:33:00,35.8,26.6,29.78,WSW,256,0.0,0.0,69,0.03,,,0.11,289.00,VWS V14.01,2013-03-26 18:33:00,
2013-03-26 14:38:00,35.9,26.7,29.78,WNW,298,0.0,0.0,69,0.03,,,0.11,354.00,VWS V14.01,2013-03-26 18:38:00,
2013-03-26 14:44:00,35.5,26.4,29.78,West,267,0.0,0.0,69,0.04,,,0.12,216.00,VWS V14.01,2013-03-26 18:44:00,
2013-03-26 14:49:00,34.9,26.1,29.78,West,264,0.0,0.0,70,0.03,,,0.12,503.00,VWS V14.01,2013-03-26 18:49:00,
2013-03-26 14:54:00,35.0,25.5,29.79,West,267,0.0,0.0,68,0.03,,,0.12,253.00,VWS V14.01,2013-03-26 18:54:00,
2013-03-26 15:00:00,35.0,25.5,29.79,WSW,240,0.0,0.0,68,0.03,,,0.12,216.00,VWS V14.01,2013-03-26 19:00:00,
2013-03-26 15:06:00,34.7,27.6,29.79,West,263,0.0,0.0,75,0.02,,,0.12,315.00,VWS V14.01,2013-03-26 19:06:00,
2013-03-26 15:11:00,34.6,28.5,29.79,WSW,256,0.0,0.0,78,0.03,,,0.13,512.00,VWS V14.01,2013-03-26 19:11:00,
2013-03-26 15:17:00,34.9,28.4,29.79,West,260,0.0,0.0,77,0.03,,,0.13,454.00,VWS V14.01,2013-03-26 19:17:00,
2013-03-26 15:22:00,35.3,27.2,29.78,SW,236,0.0,0.0,72,0.02,,,0.13,387.00,VWS V14.01,2013-03-26 19:22:00,
2013-03-26 15:27:00,35.3,25.8,29.78,WSW,240,0.0,0.0,68,0.02,,,0.13,371.00,VWS V14.01,2013-03-26 19:27:00,
2013-03-26 15:32:00,35.6,25.7,29.78,West,268,0.0,0.0,67,0.02,,,0.13,352.00,VWS V14.01,2013-03-26 19:32:00,
2013-03-26 15:38:00,35.9,26.0,29.78,WSW,248,0.0,0.0,67,0.02,,,0.13,260.00,VWS V14.01,2013-03-26 19:38:00,
2013-03-26 15:43:00,36.0,25.4,29.78,West,267,0.0,0.0,65,0.01,,,0.13,278.00,VWS V14.01,2013-03-26 19:43:00,
2013-03-26 15:49:00,36.3,26.4,29.78,West,281,0.0,0.0,67,0.01,,,0.13,333.00,VWS V14.01,2013-03-26 19:49:00,
2013-03-26 15:54:00,36.6,26.0,29.79,West,265,0.0,0.0,65,0.02,,,0.14,283.00,VWS V14.01,2013-03-26 19:54:00,
2013-03-26 15:59:00,36.3,25.3,29.79,WSW,251,0.0,0.0,64,0.02,,,0.14,274.00,VWS V14.01,2013-03-26 19:59:00,
2013-03-26 16:04:00,36.3,26.0,29.79,WSW,250,0.0,0.0,66,0.02,,,0.14,223.00,VWS V14.01,2013-03-26 20:04:00,
2013-03-26 16:10:00,35.5,26.7,29.79,WNW,282,0.0,0.0,70,0.01,,,0.14,100.00,VWS V14.01,2013-03-26 20:10:00,
2013-03-26 16:15:00,34.1,27.7,29.79,WSW,258,0.0,0.0,77,0.01,,,0.14,127.00,VWS V14.01,2013-03-26 20:15:00,
2013-03-26 16:20:00,33.2,28.3,29.81,WSW,246,0.0,0.0,82,0.01,,,0.14,331.00,VWS V14.01,2013-03-26 20:20:00,
2013-03-26 16:25:00,33.4,28.8,29.81,West,281,0.0,0.0,83,0.02,,,0.15,459.00,VWS V14.01,2013-03-26 20:25:00,
2013-03-26 16:31:00,34.0,28.8,29.81,WSW,247,0.0,0.0,81,0.02,,,0.15,303.00,VWS V14.01,2013-03-26 20:31:00,
2013-03-26 16:36:00,34.6,28.1,29.80,NW,318,0.0,0.0,77,0.02,,,0.15,218.00,VWS V14.01,2013-03-26 20:36:00,
2013-03-26 16:41:00,34.9,27.1,29.80,WNW,295,0.0,0.0,73,0.02,,,0.15,211.00,VWS V14.01,2013-03-26 20:41:00,
2013-03-26 16:46:00,35.0,25.9,29.80,WSW,253,0.0,0.0,69,0.02,,,0.15,178.00,VWS V14.01,2013-03-26 20:46:00,
2013-03-26 16:52:00,34.9,25.8,29.80,NW,319,0.0,0.0,69,0.01,,,0.15,229.00,VWS V14.01,2013-03-26 20:52:00,
2013-03-26 16:57:00,35.0,25.9,29.80,West,281,0.0,0.0,69,0.01,,,0.15,192.00,VWS V14.01,2013-03-26 20:57:00,
2013-03-26 17:02:00,35.3,26.5,29.80,West,267,0.0,0.0,70,0.01,,,0.15,143.00,VWS V14.01,2013-03-26 21:02:00,
2013-03-26 17:08:00,35.3,26.2,29.81,SW,219,0.0,0.0,69,0.01,,,0.15,91.00,VWS V14.01,2013-03-26 21:08:00,
2013-03-26 17:14:00,35.2,25.0,29.81,West,265,0.0,0.0,66,0.01,,,0.15,74.00,VWS V14.01,2013-03-26 21:14:00,
2013-03-26 17:19:00,35.0,24.8,29.81,West,270,0.0,0.0,66,0.01,,,0.15,55.00,VWS V14.01,2013-03-26 21:19:00,
2013-03-26 17:25:00,34.3,25.5,29.82,West,265,0.0,0.0,70,0.00,,,0.15,144.00,VWS V14.01,2013-03-26 21:25:00,
2013-03-26 17:31:00,34.1,25.4,29.82,West,270,0.0,0.0,70,0.00,,,0.15,91.00,VWS V14.01,2013-03-26 21:31:00,
2013-03-26 17:37:00,34.1,25.4,29.82,WNW,292,0.0,0.0,70,0.00,,,0.15,63.00,VWS V14.01,2013-03-26 21:37:00,
2013-03-26 17:44:00,34.0,25.9,29.82,West,267,0.0,0.0,72,0.00,,,0.15,49.00,VWS V14.01,2013-03-26 21:44:00,
2013-03-26 17:49:00,33.7,25.6,29.82,West,278,0.0,0.0,72,0.00,,,0.15,72.00,VWS V14.01,2013-03-26 21:49:00,
2013-03-26 17:54:00,33.7,25.6,29.82,WSW,254,0.0,0.0,72,0.00,,,0.15,93.00,VWS V14.01,2013-03-26 21:54:00,
2013-03-26 17:59:00,33.7,25.3,29.82,West,274,0.0,0.0,71,0.00,,,0.15,139.00,VWS V14.01,2013-03-26 21:59:00,
2013-03-26 18:05:00,33.8,25.7,29.83,WNW,284,0.0,0.0,72,0.00,,,0.15,218.00,VWS V14.01,2013-03-26 22:05:00,
2013-03-26 18:10:00,34.1,26.0,29.83,West,275,0.0,0.0,72,0.01,,,0.16,97.00,VWS V14.01,2013-03-26 22:10:00,
2013-03-26 18:15:00,34.1,25.4,29.83,WSW,256,0.0,0.0,70,0.01,,,0.16,67.00,VWS V14.01,2013-03-26 22:15:00,
2013-03-26 18:21:00,34.1,25.7,29.83,SSE,151,0.0,0.0,71,0.01,,,0.16,88.00,VWS V14.01,2013-03-26 22:21:00,
2013-03-26 18:27:00,34.1,25.4,29.83,WSW,257,0.0,0.0,70,0.01,,,0.16,51.00,VWS V14.01,2013-03-26 22:27:00,
2013-03-26 18:32:00,34.0,25.3,29.83,West,260,0.0,0.0,70,0.01,,,0.16,51.00,VWS V14.01,2013-03-26 22:32:00,
2013-03-26 18:38:00,34.0,25.6,29.84,WSW,246,0.0,0.0,71,0.01,,,0.16,63.00,VWS V14.01,2013-03-26 22:38:00,
2013-03-26 18:44:00,34.1,25.7,29.84,WSW,240,0.0,0.0,71,0.01,,,0.16,44.00,VWS V14.01,2013-03-26 22:44:00,
2013-03-26 18:49:00,34.1,25.7,29.84,West,260,0.0,0.0,71,0.01,,,0.16,42.00,VWS V14.01,2013-03-26 22:49:00,
2013-03-26 18:54:00,34.1,25.4,29.84,WSW,258,0.0,0.0,70,0.01,,,0.16,35.00,VWS V14.01,2013-03-26 22:54:00,
2013-03-26 18:59:00,34.0,25.3,29.84,SW,233,0.0,0.0,70,0.01,,,0.16,28.00,VWS V14.01,2013-03-26 22:59:00,
2013-03-26 19:05:00,34.0,25.6,29.85,West,264,0.0,0.0,71,0.01,,,0.16,19.00,VWS V14.01,2013-03-26 23:05:00,
2013-03-26 19:11:00,34.0,25.6,29.85,SW,219,0.0,0.0,71,0.00,,,0.16,21.00,VWS V14.01,2013-03-26 23:11:00,
2013-03-26 19:17:00,34.0,24.9,29.85,West,280,0.0,0.0,69,0.00,,,0.16,18.00,VWS V14.01,2013-03-26 23:17:00,
2013-03-26 19:23:00,34.0,25.3,29.85,WSW,250,0.0,0.0,70,0.00,,,0.16,9.00,VWS V14.01,2013-03-26 23:23:00,
2013-03-26 19:28:00,33.8,24.7,29.85,WSW,248,0.0,0.0,69,0.00,,,0.16,5.00,VWS V14.01,2013-03-26 23:28:00,
2013-03-26 19:34:00,33.8,24.7,29.85,SE,141,0.0,0.0,69,0.00,,,0.16,0.00,VWS V14.01,2013-03-26 23:34:00,
2013-03-26 19:39:00,34.0,24.9,29.85,SSW,205,0.0,0.0,69,0.00,,,0.16,0.00,VWS V14.01,2013-03-26 23:39:00,
2013-03-26 19:44:00,34.0,24.9,29.85,South,181,0.0,0.0,69,0.00,,,0.16,0.00,VWS V14.01,2013-03-26 23:44:00,
2013-03-26 19:49:00,34.0,25.3,29.85,SW,230,0.0,0.0,70,0.00,,,0.16,0.00,VWS V14.01,2013-03-26 23:49:00,
2013-03-26 19:55:00,33.8,25.1,29.86,WSW,248,0.0,0.0,70,0.00,,,0.16,0.00,VWS V14.01,2013-03-26 23:55:00,
2013-03-26 20:01:00,33.7,25.3,29.86,West,270,0.0,0.0,71,0.00,,,0.16,0.00,VWS V14.01,2013-03-27 00:01:00,
2013-03-26 20:07:00,33.7,25.6,29.87,SSW,208,0.0,0.0,72,0.00,,,0.16,0.00,VWS V14.01,2013-03-27 00:07:00,
2013-03-26 20:12:00,33.7,25.6,29.87,WSW,258,0.0,0.0,72,0.00,,,0.16,0.00,VWS V14.01,2013-03-27 00:12:00,
2013-03-26 20:18:00,33.5,25.8,29.87,South,186,0.0,0.0,73,0.00,,,0.16,0.00,VWS V14.01,2013-03-27 00:18:00,
2013-03-26 20:24:00,33.4,25.7,29.87,West,260,0.0,0.0,73,0.00,,,0.16,0.00,VWS V14.01,2013-03-27 00:24:00,
2013-03-26 20:29:00,33.4,26.0,29.87,West,272,0.0,0.0,74,0.00,,,0.16,0.00,VWS V14.01,2013-03-27 00:29:00,
2013-03-26 20:35:00,33.2,25.8,29.88,SSW,202,0.0,0.0,74,0.00,,,0.16,0.00,VWS V14.01,2013-03-27 00:35:00,
2013-03-26 20:41:00,33.2,25.8,29.88,WNW,295,0.0,0.0,74,0.00,,,0.16,0.00,VWS V14.01,2013-03-27 00:41:00,
2013-03-26 20:46:00,33.2,25.8,29.88,West,272,0.0,0.0,74,0.00,,,0.16,0.00,VWS V14.01,2013-03-27 00:46:00,
2013-03-26 20:51:00,33.1,25.7,29.88,NW,304,0.0,0.0,74,0.00,,,0.16,0.00,VWS V14.01,2013-03-27 00:51:00,
2013-03-26 20:57:00,33.1,25.7,29.88,West,277,0.0,0.0,74,0.00,,,0.16,0.00,VWS V14.01,2013-03-27 00:57:00,
2013-03-26 21:03:00,33.1,26.0,29.88,WNW,292,0.0,0.0,75,0.00,,,0.16,0.00,VWS V14.01,2013-03-27 01:03:00,
2013-03-26 21:08:00,32.9,25.9,29.89,SW,236,0.0,0.0,75,0.00,,,0.16,0.00,VWS V14.01,2013-03-27 01:08:00,
2013-03-26 21:13:00,32.9,25.9,29.89,SSW,195,0.0,0.0,75,0.00,,,0.16,0.00,VWS V14.01,2013-03-27 01:13:00,
2013-03-26 21:18:00,32.9,26.2,29.89,WSW,254,0.0,0.0,76,0.00,,,0.16,0.00,VWS V14.01,2013-03-27 01:18:00,
2013-03-26 21:24:00,32.8,26.1,29.89,SSW,200,0.0,0.0,76,0.00,,,0.16,0.00,VWS V14.01,2013-03-27 01:24:00,
2013-03-26 21:29:00,32.8,26.1,29.89,SW,236,0.0,0.0,76,0.00,,,0.16,0.00,VWS V14.01,2013-03-27 01:29:00,
2013-03-26 21:35:00,32.7,26.0,29.90,WSW,256,0.0,0.0,76,0.00,,,0.16,0.00,VWS V14.01,2013-03-27 01:35:00,
2013-03-26 21:41:00,32.7,26.3,29.90,WSW,243,0.0,0.0,77,0.00,,,0.16,0.00,VWS V14.01,2013-03-27 01:41:00,
2013-03-26 21:47:00,32.5,26.1,29.90,West,272,0.0,0.0,77,0.00,,,0.16,0.00,VWS V14.01,2013-03-27 01:47:00,
2013-03-26 21:52:00,32.5,26.1,29.90,West,271,0.0,0.0,77,0.00,,,0.16,0.00,VWS V14.01,2013-03-27 01:52:00,
2013-03-26 21:58:00,32.5,26.1,29.90,West,267,0.0,0.0,77,0.00,,,0.16,0.00,VWS V14.01,2013-03-27 01:58:00,
2013-03-26 22:03:00,32.4,26.0,29.90,West,263,0.0,0.0,77,0.00,,,0.16,0.00,VWS V14.01,2013-03-27 02:03:00,
2013-03-26 22:08:00,32.4,26.0,29.91,WSW,250,0.0,0.0,77,0.00,,,0.16,0.00,VWS V14.01,2013-03-27 02:08:00,
2013-03-26 22:14:00,32.2,25.5,29.91,WSW,244,0.0,0.0,76,0.00,,,0.16,0.00,VWS V14.01,2013-03-27 02:14:00,
2013-03-26 22:19:00,32.2,25.2,29.91,West,272,0.0,0.0,75,0.00,,,0.16,0.00,VWS V14.01,2013-03-27 02:19:00,
2013-03-26 22:24:00,32.2,25.2,29.91,WSW,250,0.0,0.0,75,0.00,,,0.16,0.00,VWS V14.01,2013-03-27 02:24:00,
2013-03-26 22:30:00,32.2,25.2,29.91,West,277,0.0,0.0,75,0.00,,,0.16,0.00,VWS V14.01,2013-03-27 02:30:00,
2013-03-26 22:35:00,32.2,25.2,29.92,West,274,0.0,0.0,75,0.00,,,0.16,0.00,VWS V14.01,2013-03-27 02:35:00,
2013-03-26 22:41:00,32.2,25.2,29.92,WSW,250,0.0,0.0,75,0.00,,,0.16,0.00,VWS V14.01,2013-03-27 02:41:00,
2013-03-26 22:46:00,32.2,25.2,29.92,SW,234,0.0,0.0,75,0.00,,,0.16,0.00,VWS V14.01,2013-03-27 02:46:00,
2013-03-26 22:51:00,32.2,25.2,29.92,West,267,0.0,0.0,75,0.00,,,0.16,0.00,VWS V14.01,2013-03-27 02:51:00,
2013-03-26 22:57:00,32.4,25.4,29.92,West,270,0.0,0.0,75,0.00,,,0.16,0.00,VWS V14.01,2013-03-27 02:57:00,
2013-03-26 23:03:00,32.4,25.0,29.92,West,267,0.0,0.0,74,0.00,,,0.16,0.00,VWS V14.01,2013-03-27 03:03:00,
2013-03-26 23:08:00,32.4,25.4,29.92,West,275,0.0,0.0,75,0.00,,,0.16,0.00,VWS V14.01,2013-03-27 03:08:00,
2013-03-26 23:14:00,32.4,25.7,29.92,West,264,0.0,0.0,76,0.00,,,0.16,0.00,VWS V14.01,2013-03-27 03:14:00,
2013-03-26 23:19:00,32.4,25.7,29.92,West,263,0.0,0.0,76,0.00,,,0.16,0.00,VWS V14.01,2013-03-27 03:19:00,
2013-03-26 23:24:00,32.2,25.8,29.92,WSW,256,0.0,0.0,77,0.00,,,0.16,0.00,VWS V14.01,2013-03-27 03:24:00,
2013-03-26 23:29:00,32.2,26.1,29.92,WNW,294,0.0,0.0,78,0.00,,,0.16,0.00,VWS V14.01,2013-03-27 03:29:00,
2013-03-26 23:35:00,32.2,26.1,29.92,WSW,244,0.0,0.0,78,0.00,,,0.16,0.00,VWS V14.01,2013-03-27 03:35:00,
2013-03-26 23:41:00,32.1,26.6,29.92,West,281,0.0,0.0,80,0.00,,,0.16,0.00,VWS V14.01,2013-03-27 03:41:00,
2013-03-26 23:47:00,31.9,26.7,29.92,SW,223,0.0,0.0,81,0.00,,,0.16,0.00,VWS V14.01,2013-03-27 03:47:00,
2013-03-26 23:52:00,31.8,26.6,29.92,West,260,0.0,0.0,81,0.00,,,0.16,0.00,VWS V14.01,2013-03-27 03:52:00,
2013-03-26 23:57:00,31.6,26.5,29.92,WNW,285,0.0,0.0,81,0.00,,,0.16,0.00,VWS V14.01,2013-03-27 03:57:00,